[Iaude] MPEC B89: 2017 BP6 [a=1.52,e=0.33,i=20.2,H=25.5]

mpec at si.edu mpec at si.edu
Sat Jan 28 08:09:23 EST 2017


M.P.E.C. 2017-B89                                Issued 2017 Jan. 28, 13:06 UT
 
     The Minor Planet Electronic Circulars contain information on unusual
         minor planets and routine data on comets.  They are published
    on behalf of Division F of the International Astronomical Union by the
          Minor Planet Center, Smithsonian Astrophysical Observatory,
                          Cambridge, MA 02138, U.S.A.

             Prepared using the Tamkin Foundation Computer Network

                              MPC at CFA.HARVARD.EDU
            URL http://www.minorplanetcenter.net/    ISSN 1523-6714


                                   2017 BP6
 
Observations:
     K17B06P* C2017 01 26.34258 08 49 09.93 +14 00 07.8          20.8 VqEB089G96
     K17B06P  C2017 01 26.34698 08 49 10.97 +14 01 13.0          20.5 VqEB089G96
     K17B06P  C2017 01 26.35138 08 49 11.99 +14 02 18.7          20.2 VqEB089G96
     K17B06P  C2017 01 26.35567 08 49 12.98 +14 03 24.7          20.4 VqEB089G96
     K17B06P  C2017 01 26.37957 08 49 23.256+14 09 42.60         20.8 wLEB089F51
     K17B06P  C2017 01 26.39037 08 49 25.724+14 12 25.56         20.8 wLEB089F51
     K17B06P  C2017 01 26.40117 08 49 28.177+14 15 07.96         20.8 wLEB089F51
     K17B06P  C2017 01 26.42580 08 49 29.27 +14 20 54.5          20.8 VqEB089G96
     K17B06P  C2017 01 26.42621 08 49 29.34 +14 21 00.9          20.2 VqEB089G96
     K17B06P  C2017 01 26.42662 08 49 29.46 +14 21 07.3          20.9 VqEB089G96
     K17B06P KC2017 01 26.81882 08 51 20.74 +15 57 38.2          20.4 RoEB089K51
     K17B06P KC2017 01 26.82133 08 51 21.40 +15 58 15.8          20.4 RoEB089K51
     K17B06P KC2017 01 26.82384 08 51 22.02 +15 58 53.3          20.5 RoEB089K51
     K17B06P KC2017 01 26.92520 08 51 45.71 +16 23 40.4          20.2 RoEB089K88
     K17B06P KC2017 01 26.93259 08 51 47.46 +16 25 28.1          20.4 RoEB089K88
     K17B06P  C2017 01 27.35566 08 53 36.16 +18 07 15.2          19.4 VqEB089G96
     K17B06P  C2017 01 27.35832 08 53 36.72 +18 07 53.6          20.2 VqEB089G96
     K17B06P  C2017 01 27.35852 08 53 36.85 +18 07 58.1          20.9 RoEB089926
     K17B06P  C2017 01 27.35873 08 53 36.95 +18 07 58.9          18.9 VqEB089G96
     K17B06P  C2017 01 27.36164 08 53 37.58 +18 08 41.7          21.1 RoEB089926
     K17B06P  C2017 01 27.36477 08 53 38.22 +18 09 26.1          21.9 RoEB089926
     K17B06P KC2017 01 27.89338 08 55 58.46 +20 11 42.2          20.5 RoEB089K88
     K17B06P KC2017 01 27.89989 08 56 00.01 +20 13 11.2          20.2 RoEB089K88
     K17B06P  C2017 01 28.21552 08 57 22.84 +21 24 36.6          20.6 VqEB089G96
     K17B06P  C2017 01 28.21611 08 57 23.05 +21 24 45.4          21.3 VqEB089G96
     K17B06P  C2017 01 28.21686 08 57 23.16 +21 24 55.5          21.0 VqEB089G96
     K17B06P  C2017 01 28.21849 08 57 23.46 +21 25 18.3          21.7 VqEB089G96
 
Observer details:
926 Tenagra II Observatory.  Observers M. Schwartz, P. R. Holvorcem.  Measurer
    M. Schwartz.  0.81-m f/7 Ritchey-Chretien + CCD.
F51 Pan-STARRS 1, Haleakala.  Observers B. Gibson, T. Goggia, S. Kahale,
    T. Lowe, A. Schultz, M. Willman.  Measurers K. Chambers, S. Chastel,
    L. Denneau, H. Flewelling, M. Huber, E. Lilly, E. Magnier, R. Wainscoat,
    C. Waters, R. Weryk.  1.8-m Ritchey-Chretien + CCD.
G96 Mt. Lemmon Survey.  Observers D. C. Fuls, R. A. Kowalski.  Measurers
    E. J. Christensen, D. C. Fuls, A. R. Gibbs, A. D. Grauer, J. A. Johnson,
    R. A. Kowalski, S. M. Larson, G. J. Leonard, R. G. Matheny, R. L. Seaman,
    F. C. Shelly.  1.5-m reflector + 10K CCD.
K51 Osservatorio del Celado, Castello Tesino.  Observers G. Favero, R. Furgoni.
    Measurer R. Furgoni.  0.80-m f/4 reflector + CCD.
K88 GINOP-KHK, Piszkesteto.  Observer K. Sarneczky.  0.60-m Schmidt + CCD.
 
Orbital elements:
2017 BP6                                                 Earth MOID = 0.0820 AU
Epoch 2017 Feb. 16.0 TT = JDT 2457800.5                 MPC
M  29.00060              (2000.0)            P               Q
n   0.52519362     Peri.  322.18894     -0.02452195     -0.96161852
a   1.5214456      Node   127.51020     +0.98051732     -0.07643082
e   0.3308423      Incl.   20.15274     +0.19489603     +0.26353016
P   1.88           H   25.5           G   0.15           U   7
Residuals in seconds of arc
170126 G96  0.3-  0.1+    170126 G96  0.3+  0.1+    170127 G96  0.8+  0.1-
170126 G96  0.1+  0.9-    170126 K51  0.7-  0.5-    170127 926  0.5+  0.1-
170126 G96  0.3+  1.4-    170126 K51  0.1-  0.0     170127 926  0.4-  0.0
170126 G96  0.3+  0.1+    170126 K51  0.2-  0.5+    170127 K88  0.2-  0.1+
170126 F51  0.0   0.3+    170126 K88  0.1-  0.1+    170127 K88  0.5+  0.2-
170126 F51  0.0   0.3+    170126 K88  0.1+  0.1-    170128 G96  0.0   0.9-
170126 F51  0.1-  0.1-    170127 G96  0.6-  0.4-    170128 G96  1.0+  0.0
170126 G96  0.4+  0.4-    170127 G96  1.2-  0.4+    170128 G96  0.2+  0.0
170126 G96  0.0   0.1-    170127 926  0.1+  0.4+    170128 G96  0.8-  0.8+

Ephemeris:
2017 BP6                 a,e,i = 1.52, 0.33, 20                  q = 1.0181
Date    TT    R. A. (2000) Decl.     Delta      r     Elong.  Phase     V
2016 12 29    06 36 47.1 -60 23 07   0.1821  1.0198    96.4    73.4    24.4
...
2017 01 13    07 45 04.1 -39 22 01   0.1055  1.0389   119.1    55.8    22.7
...
2017 01 21    08 24 23.8 -10 07 59   0.08327 1.0569   149.8    28.0    21.5
...
2017 01 27    08 52 04.0 +16 42 28   0.08897 1.0735   176.1     3.6    20.7
2017 01 28    08 56 23.7 +20 36 30   0.09190 1.0765   175.8     3.8    20.8
2017 01 29    09 00 37.6 +24 14 27   0.09531 1.0796   172.9     6.5    21.1
...
2017 02 04    09 23 48.0 +40 27 10   0.1234  1.0994   155.7    21.7    22.2
...
2017 02 12    09 48 23.2 +51 20 47   0.1728  1.1290   142.4    32.2    23.3
...
2017 02 27    10 17 33.3 +57 38 03   0.2802  1.1919   130.6    39.1    24.7

A. U. Tomatic                (C) Copyright 2017 MPC           M.P.E.C. 2017-B89




More information about the Iaude mailing list